Location: Appleton
(44.2618°N, 88.4157°W)
Time: 08:06:09
(UTC+00:00)

S-56A Canister/Altair - Pass Details

Date: 03 March 2021
Orbit: 632 x 2500 km, 38.9° (Epoch: 17 April)

Event Time Altitude Azimuth Distance (km) Brightness Sun altitude
Rises 17:33:55 0° 197° (SSW) 5,211 12.5 38.7°
Reaches altitude 10° 17:37:47 10° 186° (S) 4,474 12.6 38.8°
Maximum altitude 17:47:49 28° 135° (SE) 3,706 12.1 39.0°
Drops below altitude 10° 17:59:15 10° 85° (E) 5,168 11.8 39.2°
Sets 18:04:05 0° 75° (ENE) 6,148 12.0 39.2°
